• In Deutschland
  • Länderverzeichnis
  • Für 7 Tage
  • Wassertemperatur
  • Satellitenkarten
  • Wetterkarte
  • Widgets
  • user-avatar
    Anmelden

    Stündliche Wetter Korçe

    Heute, 23 Juni, Freitag

    Zeit Temperatur Niederschläge Wind Luftdruck Luftfeuchtigkeit
    00:00 +13°C° 0 mm 0 m/S 669 mmHg 83%
    01:00 +12°C° 0 mm 0 m/S 668 mmHg 85%
    02:00 +12°C° 0 mm 0 m/S 668 mmHg 85%
    03:00 +12°C° 0 mm 0 m/S 668 mmHg 85%
    04:00 +11°C° 0 mm 0 m/S 668 mmHg 85%
    05:00 +15°C° 0 mm 0 m/S 669 mmHg 75%
    06:00 +18°C° 0 mm 0 m/S 670 mmHg 65%
    07:00 +21°C° 0 mm 0 m/S 671 mmHg 55%
    08:00 +25°C° 0 mm 1 m/S 671 mmHg 49%
    09:00 +26°C° 0 mm 1 m/S 672 mmHg 42%
    10:00 +28°C° 0 mm 1 m/S 672 mmHg 36%
    11:00 +28°C° 0 mm 2 m/S 672 mmHg 34%
    12:00 +29°C° 0 mm 2 m/S 672 mmHg 33%
    13:00 +29°C° 0 mm 3 m/S 672 mmHg 31%
    14:00 +29°C° 0,2 mm 3 m/S 671 mmHg 34%
    15:00 +28°C° 0,2 mm 3 m/S 671 mmHg 37%
    16:00 +27°C° 0,2 mm 3 m/S 671 mmHg 39%
    17:00 +25°C° 0 mm 3 m/S 670 mmHg 48%
    18:00 +21°C° 0 mm 2 m/S 669 mmHg 57%
    19:00 +19°C° 0 mm 1 m/S 668 mmHg 66%
    20:00 +18°C° 0 mm 1 m/S 668 mmHg 68%
    21:00 +16°C° 0 mm 1 m/S 668 mmHg 71%
    22:00 +15°C° 0 mm 1 m/S 668 mmHg 73%
    23:00 +14°C° 0 mm 1 m/S 668 mmHg 73%

    Morgen, 24 Juni, Samstag

    Zeit Temperatur Niederschläge Wind Luftdruck Luftfeuchtigkeit
    00:00 +14°C° 0 mm 1 m/S 668 mmHg 74%
    01:00 +14°C° 0 mm 1 m/S 668 mmHg 74%
    02:00 +13°C° 0 mm 1 m/S 667 mmHg 75%
    03:00 +13°C° 0 mm 1 m/S 667 mmHg 76%
    04:00 +13°C° 0 mm 1 m/S 667 mmHg 77%
    05:00 +16°C° 0 mm 1 m/S 668 mmHg 68%
    06:00 +20°C° 0 mm 1 m/S 669 mmHg 60%
    07:00 +23°C° 0 mm 1 m/S 670 mmHg 52%
    08:00 +25°C° 0 mm 1 m/S 670 mmHg 46%
    09:00 +27°C° 0 mm 1 m/S 671 mmHg 40%
    10:00 +29°C° 0 mm 1 m/S 672 mmHg 35%
    11:00 +29°C° 0,1 mm 1 m/S 671 mmHg 34%
    12:00 +30°C° 0,1 mm 1 m/S 671 mmHg 33%
    13:00 +31°C° 0,1 mm 1 m/S 671 mmHg 32%
    14:00 +30°C° 0,3 mm 2 m/S 671 mmHg 35%
    15:00 +29°C° 0,3 mm 2 m/S 670 mmHg 37%
    16:00 +28°C° 0,3 mm 2 m/S 670 mmHg 40%
    17:00 +26°C° 0,2 mm 2 m/S 669 mmHg 49%
    18:00 +23°C° 0,2 mm 1 m/S 669 mmHg 58%
    19:00 +20°C° 0,2 mm 1 m/S 668 mmHg 67%
    20:00 +19°C° 0 mm 1 m/S 668 mmHg 71%
    21:00 +18°C° 0 mm 1 m/S 668 mmHg 75%
    22:00 +16°C° 0 mm 1 m/S 668 mmHg 78%
    23:00 +16°C° 0,1 mm 1 m/S 668 mmHg 79%

    übermorgen, 25 Juni, Sonntag

    Zeit Temperatur Niederschläge Wind Luftdruck Luftfeuchtigkeit
    00:00 +16°C° 0,1 mm 1 m/S 668 mmHg 79%
    01:00 +14°C° 0,1 mm 0 m/S 667 mmHg 80%
    02:00 +14°C° 0,1 mm 0 m/S 667 mmHg 81%
    03:00 +14°C° 0,1 mm 0 m/S 667 mmHg 82%
    04:00 +14°C° 0,1 mm 0 m/S 667 mmHg 83%
    05:00 +16°C° 0,1 mm 0 m/S 668 mmHg 74%
    06:00 +19°C° 0,1 mm 0 m/S 668 mmHg 65%
    07:00 +22°C° 0,1 mm 0 m/S 669 mmHg 56%
    08:00 +26°C° 0,3 mm 1 m/S 670 mmHg 51%
    09:00 +27°C° 0,3 mm 1 m/S 670 mmHg 47%
    10:00 +29°C° 0,3 mm 1 m/S 670 mmHg 42%
    11:00 +29°C° 1,3 mm 1 m/S 670 mmHg 42%
    12:00 +29°C° 1,3 mm 1 m/S 670 mmHg 42%
    13:00 +29°C° 1,3 mm 2 m/S 669 mmHg 42%
    14:00 +29°C° 1 mm 2 m/S 669 mmHg 46%
    15:00 +28°C° 1 mm 2 m/S 669 mmHg 49%
    16:00 +27°C° 1 mm 2 m/S 668 mmHg 52%
    17:00 +25°C° 0,3 mm 1 m/S 668 mmHg 58%
    18:00 +23°C° 0,3 mm 1 m/S 667 mmHg 64%
    19:00 +21°C° 0,3 mm 1 m/S 667 mmHg 70%
    20:00 +20°C° 0,3 mm 1 m/S 667 mmHg 71%
    21:00 +19°C° 0,3 mm 1 m/S 667 mmHg 72%
    22:00 +16°C° 0,3 mm 0 m/S 667 mmHg 73%
    23:00 +15°C° 0,3 mm 0 m/S 666 mmHg 74%

    26 Juni, Montag

    Zeit Temperatur Niederschläge Wind Luftdruck Luftfeuchtigkeit
    00:00 +15°C° 0,3 mm 0 m/S 666 mmHg 75%
    01:00 +14°C° 0,3 mm 0 m/S 666 mmHg 76%
    02:00 +14°C° 0 mm 0 m/S 666 mmHg 76%
    03:00 +14°C° 0 mm 0 m/S 665 mmHg 76%
    04:00 +13°C° 0 mm 0 m/S 665 mmHg 75%
    05:00 +16°C° 0 mm 0 m/S 666 mmHg 68%
    06:00 +19°C° 0 mm 0 m/S 667 mmHg 61%
    07:00 +21°C° 0 mm 0 m/S 668 mmHg 54%
    08:00 +23°C° 0,2 mm 0 m/S 668 mmHg 48%
    09:00 +27°C° 0,2 mm 1 m/S 669 mmHg 42%
    10:00 +29°C° 0,2 mm 1 m/S 669 mmHg 36%
    11:00 +29°C° 0,3 mm 1 m/S 669 mmHg 36%
    12:00 +30°C° 0,3 mm 1 m/S 669 mmHg 35%
    13:00 +30°C° 0,3 mm 2 m/S 669 mmHg 34%
    14:00 +29°C° 0,2 mm 2 m/S 669 mmHg 36%
    15:00 +29°C° 0,2 mm 2 m/S 668 mmHg 39%
    16:00 +28°C° 0,2 mm 2 m/S 668 mmHg 41%
    17:00 +26°C° 0,2 mm 2 m/S 668 mmHg 51%
    18:00 +23°C° 0,2 mm 1 m/S 667 mmHg 60%
    19:00 +20°C° 0,2 mm 1 m/S 667 mmHg 69%
    20:00 +19°C° 0 mm 1 m/S 667 mmHg 72%
    21:00 +18°C° 0 mm 1 m/S 667 mmHg 76%
    22:00 +16°C° 0 mm 1 m/S 667 mmHg 79%
    23:00 +16°C° 0 mm 1 m/S 667 mmHg 80%

    27 Juni, Dienstag

    Zeit Temperatur Niederschläge Wind Luftdruck Luftfeuchtigkeit
    00:00 +14°C° 0 mm 0 m/S 667 mmHg 81%
    01:00 +14°C° 0 mm 0 m/S 666 mmHg 82%
    02:00 +14°C° 0,1 mm 0 m/S 666 mmHg 83%
    03:00 +15°C° 0,1 mm 1 m/S 666 mmHg 84%
    04:00 +15°C° 0,1 mm 1 m/S 666 mmHg 85%
    05:00 +18°C° 0 mm 1 m/S 667 mmHg 76%
    06:00 +21°C° 0 mm 1 m/S 668 mmHg 68%
    07:00 +22°C° 0 mm 0 m/S 669 mmHg 59%
    08:00 +25°C° 0,1 mm 1 m/S 670 mmHg 54%
    09:00 +27°C° 0,1 mm 1 m/S 670 mmHg 49%
    10:00 +29°C° 0,1 mm 1 m/S 671 mmHg 44%
    11:00 +29°C° 0,6 mm 1 m/S 671 mmHg 43%
    12:00 +30°C° 0,6 mm 1 m/S 670 mmHg 42%
    13:00 +30°C° 0,6 mm 2 m/S 670 mmHg 42%
    14:00 +29°C° 0,6 mm 2 m/S 670 mmHg 43%
    15:00 +29°C° 0,6 mm 2 m/S 670 mmHg 45%
    16:00 +28°C° 0,6 mm 2 m/S 670 mmHg 46%
    17:00 +26°C° 0,2 mm 1 m/S 669 mmHg 54%
    18:00 +23°C° 0,2 mm 1 m/S 668 mmHg 61%
    19:00 +21°C° 0,2 mm 1 m/S 668 mmHg 69%
    20:00 +20°C° 0 mm 1 m/S 668 mmHg 72%
    21:00 +16°C° 0 mm 0 m/S 667 mmHg 76%
    22:00 +15°C° 0 mm 0 m/S 667 mmHg 80%
    23:00 +15°C° 0,1 mm 0 m/S 667 mmHg 81%

    28 Juni, Mittwoch

    Zeit Temperatur Niederschläge Wind Luftdruck Luftfeuchtigkeit
    00:00 +14°C° 0,1 mm 0 m/S 667 mmHg 82%
    01:00 +14°C° 0,1 mm 0 m/S 667 mmHg 83%
    02:00 +14°C° 0 mm 0 m/S 666 mmHg 83%
    03:00 +13°C° 0 mm 0 m/S 666 mmHg 84%
    04:00 +13°C° 0 mm 0 m/S 666 mmHg 84%
    05:00 +16°C° 0 mm 0 m/S 667 mmHg 74%
    06:00 +19°C° 0 mm 0 m/S 668 mmHg 64%
    07:00 +22°C° 0 mm 0 m/S 669 mmHg 54%
    08:00 +24°C° 0 mm 0 m/S 669 mmHg 48%
    09:00 +26°C° 0 mm 0 m/S 670 mmHg 41%
    10:00 +30°C° 0 mm 1 m/S 670 mmHg 34%
    11:00 +30°C° 0 mm 1 m/S 670 mmHg 33%
    12:00 +31°C° 0 mm 1 m/S 670 mmHg 31%
    13:00 +31°C° 0 mm 2 m/S 670 mmHg 29%
    14:00 +31°C° 0,1 mm 2 m/S 669 mmHg 31%
    15:00 +30°C° 0,1 mm 2 m/S 669 mmHg 33%
    16:00 +29°C° 0,1 mm 2 m/S 669 mmHg 35%
    17:00 +27°C° 0,1 mm 2 m/S 668 mmHg 45%
    18:00 +24°C° 0,1 mm 1 m/S 667 mmHg 54%
    19:00 +21°C° 0,1 mm 1 m/S 666 mmHg 64%
    20:00 +20°C° 0 mm 1 m/S 666 mmHg 68%
    21:00 +18°C° 0 mm 1 m/S 666 mmHg 72%
    22:00 +15°C° 0 mm 0 m/S 666 mmHg 76%
    23:00 +16°C° 0 mm 1 m/S 666 mmHg 76%
    Mehr zeigen